Time,TemperatureF,DewpointF,PressureIn,WindDirection,WindDirectionDegrees,WindSpeedMPH,WindSpeedGustMPH,Humidity,HourlyPrecipIn,Conditions,Clouds,dailyrainin,SoftwareType,DateUTC
2013-05-23 00:00:00,70.0,67.6,29.92,East,87,0.0,0.0,92,0.00,,CLR,0.00,VWS V14.01,2013-05-23 04:00:00,
2013-05-23 00:04:00,70.0,67.6,29.92,East,87,0.0,0.0,92,0.00,,CLR,0.00,VWS V14.01,2013-05-23 04:04:00,
2013-05-23 00:14:00,69.8,67.4,29.92,East,87,0.0,0.0,92,0.00,,CLR,0.00,VWS V14.01,2013-05-23 04:14:00,
2013-05-23 00:15:00,69.8,67.4,29.92,East,87,0.0,0.0,92,0.00,,CLR,0.00,VWS V14.01,2013-05-23 04:15:00,
2013-05-23 00:23:00,69.5,67.1,29.92,East,87,0.0,0.0,92,0.00,,CLR,0.00,VWS V14.01,2013-05-23 04:23:00,
2013-05-23 00:30:00,69.3,67.2,29.92,East,87,0.0,0.0,93,0.00,,CLR,0.00,VWS V14.01,2013-05-23 04:30:00,
2013-05-23 00:38:00,69.0,66.9,29.92,East,87,0.0,0.0,93,0.00,,CLR,0.00,VWS V14.01,2013-05-23 04:38:00,
2013-05-23 00:45:00,68.8,67.0,29.91,East,87,0.0,0.0,94,0.00,,CLR,0.00,VWS V14.01,2013-05-23 04:45:00,
2013-05-23 00:52:00,68.5,66.4,29.91,East,87,0.0,0.0,93,0.00,,CLR,0.00,VWS V14.01,2013-05-23 04:52:00,
2013-05-23 01:00:00,68.3,66.2,29.92,East,87,0.0,0.0,93,0.00,,CLR,0.00,VWS V14.01,2013-05-23 05:00:00,
2013-05-23 01:07:00,68.0,65.9,29.92,East,87,0.0,0.0,93,0.00,,CLR,0.00,VWS V14.01,2013-05-23 05:07:00,
2013-05-23 01:15:00,67.8,66.0,29.91,East,87,0.0,0.0,94,0.00,,CLR,0.00,VWS V14.01,2013-05-23 05:15:00,
2013-05-23 01:21:00,67.7,65.9,29.91,East,87,0.0,0.0,94,0.00,,CLR,0.00,VWS V14.01,2013-05-23 05:21:00,
2013-05-23 01:30:00,67.7,66.2,29.91,East,87,0.0,0.0,95,0.00,,CLR,0.00,VWS V14.01,2013-05-23 05:30:00,
2013-05-23 01:36:00,67.7,66.2,29.91,East,87,0.0,0.0,95,0.00,,CLR,0.00,VWS V14.01,2013-05-23 05:36:00,
2013-05-23 01:45:00,67.5,66.0,29.91,East,87,0.0,0.0,95,0.00,,CLR,0.00,VWS V14.01,2013-05-23 05:45:00,
2013-05-23 01:50:00,67.4,65.9,29.91,East,87,0.0,0.0,95,0.00,,CLR,0.00,VWS V14.01,2013-05-23 05:50:00,
2013-05-23 02:00:00,67.3,65.8,29.90,East,87,0.0,0.0,95,0.00,,CLR,0.00,VWS V14.01,2013-05-23 06:00:00,
2013-05-23 02:09:00,67.4,65.9,29.90,East,87,0.0,0.0,95,0.00,,CLR,0.00,VWS V14.01,2013-05-23 06:09:00,
2013-05-23 02:15:00,67.4,66.2,29.90,East,87,0.0,0.0,96,0.00,,CLR,0.00,VWS V14.01,2013-05-23 06:15:00,
2013-05-23 02:24:00,67.5,66.3,29.90,East,87,0.0,0.0,96,0.00,,CLR,0.00,VWS V14.01,2013-05-23 06:24:00,
2013-05-23 02:30:00,67.4,66.2,29.90,East,87,0.0,0.0,96,0.00,,CLR,0.00,VWS V14.01,2013-05-23 06:30:00,
2013-05-23 02:38:00,67.0,65.5,29.90,East,87,0.0,0.0,95,0.00,,CLR,0.00,VWS V14.01,2013-05-23 06:38:00,
2013-05-23 02:45:00,66.7,65.2,29.90,East,87,0.0,0.0,95,0.00,,CLR,0.00,VWS V14.01,2013-05-23 06:45:00,
2013-05-23 02:53:00,66.6,65.1,29.90,East,87,0.0,0.0,95,0.00,,CLR,0.00,VWS V14.01,2013-05-23 06:53:00,
2013-05-23 03:00:00,66.6,65.4,29.90,East,87,0.0,0.0,96,0.00,,CLR,0.00,VWS V14.01,2013-05-23 07:00:00,
2013-05-23 03:07:00,66.6,65.4,29.90,East,87,0.0,0.0,96,0.00,,CLR,0.00,VWS V14.01,2013-05-23 07:07:00,
2013-05-23 03:15:00,66.7,65.5,29.90,East,87,0.0,0.0,96,0.00,,CLR,0.00,VWS V14.01,2013-05-23 07:15:00,
2013-05-23 03:22:00,66.9,65.7,29.90,East,87,0.0,0.0,96,0.00,,CLR,0.00,VWS V14.01,2013-05-23 07:22:00,
2013-05-23 03:30:00,67.0,65.8,29.90,East,87,0.0,0.0,96,0.00,,CLR,0.00,VWS V14.01,2013-05-23 07:30:00,
2013-05-23 03:36:00,67.1,65.9,29.90,East,87,0.0,0.0,96,0.00,,BKN012,0.00,VWS V14.01,2013-05-23 07:36:00,
2013-05-23 03:45:00,67.2,66.0,29.90,East,87,0.0,0.0,96,0.00,,BKN012,0.00,VWS V14.01,2013-05-23 07:45:00,
2013-05-23 03:51:00,67.3,66.1,29.90,East,87,0.0,0.0,96,0.00,,BKN012,0.00,VWS V14.01,2013-05-23 07:51:00,
2013-05-23 04:00:00,67.3,66.1,29.90,East,87,0.0,0.0,96,0.00,,BKN012,0.00,VWS V14.01,2013-05-23 08:00:00,
2013-05-23 04:05:00,67.3,66.1,29.91,East,87,0.0,0.0,96,0.00,,FEW012,0.00,VWS V14.01,2013-05-23 08:05:00,
2013-05-23 04:15:00,67.4,66.2,29.91,East,87,0.0,0.0,96,0.00,,FEW012,0.00,VWS V14.01,2013-05-23 08:15:00,
2013-05-23 04:25:00,67.4,66.2,29.90,East,87,0.0,0.0,96,0.00,,FEW012,0.00,VWS V14.01,2013-05-23 08:25:00,
2013-05-23 04:30:00,67.4,66.2,29.90,East,87,0.0,0.0,96,0.00,,FEW012,0.00,VWS V14.01,2013-05-23 08:30:00,
2013-05-23 04:39:00,67.3,66.1,29.90,East,87,0.0,0.0,96,0.00,,BKN020,0.00,VWS V14.01,2013-05-23 08:39:00,
2013-05-23 04:45:00,67.3,66.1,29.91,East,87,0.0,0.0,96,0.00,,BKN020,0.00,VWS V14.01,2013-05-23 08:45:00,
2013-05-23 04:54:00,67.3,66.1,29.91,East,87,0.0,0.0,96,0.00,,BKN020,0.00,VWS V14.01,2013-05-23 08:54:00,
2013-05-23 05:00:00,67.3,66.1,29.91,East,87,0.0,0.0,96,0.00,,BKN020,0.00,VWS V14.01,2013-05-23 09:00:00,
2013-05-23 05:08:00,67.3,66.1,29.91,East,87,0.0,0.0,96,0.00,,SCT009,0.00,VWS V14.01,2013-05-23 09:08:00,
2013-05-23 05:15:00,67.2,66.0,29.91,East,87,0.0,0.0,96,0.00,,SCT009,0.00,VWS V14.01,2013-05-23 09:15:00,
2013-05-23 05:23:00,67.2,66.0,29.91,East,87,0.0,0.0,96,0.00,,SCT009,0.00,VWS V14.01,2013-05-23 09:23:00,
2013-05-23 05:30:00,67.1,65.9,29.90,East,87,0.0,0.0,96,0.00,,SCT009,0.00,VWS V14.01,2013-05-23 09:30:00,
2013-05-23 05:37:00,67.0,65.8,29.90,East,87,0.0,0.0,96,0.00,,BKN007,0.00,VWS V14.01,2013-05-23 09:37:00,
2013-05-23 05:45:00,67.0,65.8,29.90,East,87,0.0,0.0,96,0.00,,BKN007,0.00,VWS V14.01,2013-05-23 09:45:00,
2013-05-23 05:52:00,66.9,65.7,29.90,East,87,0.0,0.0,96,0.00,,BKN007,0.00,VWS V14.01,2013-05-23 09:52:00,
2013-05-23 06:00:00,66.8,65.6,29.90,East,87,0.0,0.0,96,0.00,,BKN007,0.00,VWS V14.01,2013-05-23 10:00:00,
2013-05-23 06:06:00,66.7,65.5,29.91,East,87,0.0,0.0,96,0.00,,BKN027,0.00,VWS V14.01,2013-05-23 10:06:00,
2013-05-23 06:15:00,66.6,65.7,29.91,East,87,0.0,0.0,97,0.00,,BKN027,0.00,VWS V14.01,2013-05-23 10:15:00,
2013-05-23 06:21:00,66.6,65.7,29.91,East,87,0.0,0.0,97,0.00,,BKN027,0.00,VWS V14.01,2013-05-23 10:21:00,
2013-05-23 06:30:00,66.6,65.7,29.91,East,87,0.0,0.0,97,0.00,,BKN027,0.00,VWS V14.01,2013-05-23 10:30:00,
2013-05-23 06:35:00,66.7,65.8,29.91,East,87,0.0,0.0,97,0.00,,,0.00,VWS V14.01,2013-05-23 10:35:00,
2013-05-23 06:45:00,66.9,66.0,29.91,East,87,0.0,0.0,97,0.00,,,0.00,VWS V14.01,2013-05-23 10:45:00,
2013-05-23 06:54:00,67.0,66.1,29.91,East,87,0.0,0.0,97,0.00,,,0.00,VWS V14.01,2013-05-23 10:54:00,
2013-05-23 07:00:00,67.0,66.1,29.91,East,87,0.0,0.0,97,0.00,,,0.00,VWS V14.01,2013-05-23 11:00:00,
2013-05-23 07:09:00,67.0,66.1,29.91,East,87,0.0,0.0,97,0.00,,,0.00,VWS V14.01,2013-05-23 11:09:00,
2013-05-23 07:15:00,67.0,66.1,29.90,East,87,0.0,0.0,97,0.00,,,0.00,VWS V14.01,2013-05-23 11:15:00,
2013-05-23 07:23:00,67.1,66.2,29.90,East,87,0.0,0.0,97,0.00,,,0.00,VWS V14.01,2013-05-23 11:23:00,
2013-05-23 07:30:00,67.3,66.4,29.90,East,87,0.0,0.0,97,0.00,,,0.00,VWS V14.01,2013-05-23 11:30:00,
2013-05-23 07:38:00,67.6,66.7,29.90,East,87,0.0,0.0,97,0.00,,,0.00,VWS V14.01,2013-05-23 11:38:00,
2013-05-23 07:45:00,67.8,66.9,29.90,East,87,0.0,0.0,97,0.00,,,0.00,VWS V14.01,2013-05-23 11:45:00,
2013-05-23 07:52:00,68.1,67.2,29.90,East,87,0.0,0.0,97,0.00,,,0.00,VWS V14.01,2013-05-23 11:52:00,
2013-05-23 08:00:00,68.6,67.7,29.90,East,87,0.0,0.0,97,0.00,,,0.00,VWS V14.01,2013-05-23 12:00:00,
2013-05-23 08:07:00,69.2,68.6,29.90,East,87,0.0,0.0,98,0.00,,,0.00,VWS V14.01,2013-05-23 12:07:00,
2013-05-23 08:15:00,69.7,68.8,29.90,East,87,0.0,1.0,97,0.00,,,0.00,VWS V14.01,2013-05-23 12:15:00,
2013-05-23 08:21:00,70.0,69.4,29.90,East,87,0.0,0.0,98,0.00,,,0.00,VWS V14.01,2013-05-23 12:21:00,
2013-05-23 08:30:00,70.3,69.4,29.90,East,87,0.0,1.0,97,0.00,,,0.00,VWS V14.01,2013-05-23 12:30:00,
2013-05-23 08:36:00,70.5,69.6,29.89,East,87,0.0,0.0,97,0.00,,OVC011,0.00,VWS V14.01,2013-05-23 12:36:00,
2013-05-23 08:45:00,70.8,69.9,29.89,East,87,0.0,1.0,97,0.00,,OVC011,0.00,VWS V14.01,2013-05-23 12:45:00,
2013-05-23 08:50:00,71.1,70.2,29.90,East,87,0.0,0.0,97,0.00,,OVC011,0.00,VWS V14.01,2013-05-23 12:50:00,
2013-05-23 09:00:00,71.8,70.6,29.90,East,88,0.0,1.0,96,0.00,,OVC011,0.00,VWS V14.01,2013-05-23 13:00:00,
2013-05-23 09:10:00,72.7,71.2,29.90,East,88,0.0,1.0,95,0.00,,OVC011,0.00,VWS V14.01,2013-05-23 13:10:00,
2013-05-23 09:15:00,72.9,71.1,29.90,East,87,0.0,1.0,94,0.00,,OVC011,0.00,VWS V14.01,2013-05-23 13:15:00,
2013-05-23 09:24:00,73.5,71.4,29.90,East,88,0.0,0.0,93,0.00,,OVC011,0.00,VWS V14.01,2013-05-23 13:24:00,
2013-05-23 09:30:00,73.9,71.4,29.90,East,88,0.0,0.0,92,0.00,,OVC011,0.00,VWS V14.01,2013-05-23 13:30:00,
2013-05-23 09:39:00,74.0,71.2,29.90,SE,130,0.0,2.0,91,0.00,,OVC016,0.00,VWS V14.01,2013-05-23 13:39:00,
2013-05-23 09:45:00,74.1,71.3,29.90,SE,130,0.0,2.0,91,0.00,,OVC016,0.00,VWS V14.01,2013-05-23 13:45:00,
2013-05-23 09:53:00,74.1,71.0,29.90,SE,136,0.0,2.0,90,0.00,,OVC016,0.00,VWS V14.01,2013-05-23 13:53:00,
2013-05-23 10:00:00,74.4,71.3,29.90,South,180,0.0,2.0,90,0.00,,OVC016,0.00,VWS V14.01,2013-05-23 14:00:00,
2013-05-23 10:08:00,75.2,71.4,29.90,SSE,159,0.0,3.0,88,0.00,,OVC065,0.00,VWS V14.01,2013-05-23 14:08:00,
2013-05-23 10:15:00,75.3,70.8,29.90,South,182,0.0,3.0,86,0.00,,OVC065,0.00,VWS V14.01,2013-05-23 14:15:00,
2013-05-23 10:22:00,75.5,71.7,29.90,South,182,0.0,0.0,88,0.00,,OVC065,0.00,VWS V14.01,2013-05-23 14:22:00,
2013-05-23 10:30:00,76.0,71.9,29.90,SSW,194,4.0,4.0,87,0.00,,OVC065,0.00,VWS V14.01,2013-05-23 14:30:00,
2013-05-23 10:37:00,76.1,71.9,29.90,SW,223,2.0,6.0,87,0.00,,OVC070,0.00,VWS V14.01,2013-05-23 14:37:00,
2013-05-23 10:45:00,76.1,71.3,29.90,SSE,166,0.0,6.0,85,0.00,,OVC070,0.00,VWS V14.01,2013-05-23 14:45:00,
2013-05-23 10:51:00,76.1,70.9,29.90,South,172,0.0,1.0,84,0.00,,OVC070,0.00,VWS V14.01,2013-05-23 14:51:00,
2013-05-23 11:00:00,76.2,70.7,29.90,West,270,0.0,4.0,83,0.00,,OVC070,0.00,VWS V14.01,2013-05-23 15:00:00,
2013-05-23 11:06:00,76.3,71.1,29.90,West,263,0.0,2.0,84,0.00,,FEW016,0.00,VWS V14.01,2013-05-23 15:06:00,
2013-05-23 11:15:00,76.8,71.6,29.90,WSW,237,0.0,2.0,84,0.00,,FEW016,0.00,VWS V14.01,2013-05-23 15:15:00,
2013-05-23 11:25:00,77.1,71.2,29.90,WSW,237,0.0,0.0,82,0.00,,FEW016,0.00,VWS V14.01,2013-05-23 15:25:00,
2013-05-23 11:30:00,77.2,70.6,29.90,SW,228,0.0,4.0,80,0.00,,FEW016,0.00,VWS V14.01,2013-05-23 15:30:00,
2013-05-23 11:39:00,77.8,71.1,29.89,SW,222,0.0,2.0,80,0.00,,FEW016,0.00,VWS V14.01,2013-05-23 15:39:00,
2013-05-23 11:45:00,77.8,70.8,29.89,WSW,252,0.0,5.0,79,0.00,,FEW016,0.00,VWS V14.01,2013-05-23 15:45:00,
2013-05-23 11:54:00,77.9,71.6,29.90,WSW,248,0.0,1.0,81,0.00,,FEW016,0.00,VWS V14.01,2013-05-23 15:54:00,
2013-05-23 12:00:00,78.5,71.8,29.90,NW,310,0.0,2.0,80,0.00,,FEW016,0.00,VWS V14.01,2013-05-23 16:00:00,
2013-05-23 12:08:00,79.0,71.6,29.90,NNW,329,0.0,4.0,78,0.00,,BKN028,0.00,VWS V14.01,2013-05-23 16:08:00,
2013-05-23 12:15:00,80.0,72.5,29.90,NNW,329,0.0,4.0,78,0.00,,BKN028,0.00,VWS V14.01,2013-05-23 16:15:00,
2013-05-23 12:23:00,81.2,72.1,29.89,SSE,159,1.0,2.0,74,0.00,,BKN028,0.00,VWS V14.01,2013-05-23 16:23:00,
2013-05-23 12:30:00,81.7,70.6,29.89,South,180,0.0,6.0,69,0.00,,BKN028,0.00,VWS V14.01,2013-05-23 16:30:00,
2013-05-23 12:37:00,81.5,70.4,29.89,SSE,168,0.0,2.0,69,0.00,,SCT030,0.00,VWS V14.01,2013-05-23 16:37:00,
2013-05-23 12:45:00,82.0,70.0,29.89,WSW,242,0.0,4.0,67,0.00,,SCT030,0.00,VWS V14.01,2013-05-23 16:45:00,
2013-05-23 12:52:00,82.8,69.8,29.88,North,5,2.0,5.0,65,0.00,,SCT030,0.00,VWS V14.01,2013-05-23 16:52:00,
2013-05-23 13:00:00,82.9,70.4,29.88,NNW,327,0.0,6.0,66,0.00,,SCT030,0.00,VWS V14.01,2013-05-23 17:00:00,
2013-05-23 13:06:00,82.5,71.3,29.87,NNW,327,0.0,4.0,69,0.00,,SCT036,0.00,VWS V14.01,2013-05-23 17:06:00,
2013-05-23 13:15:00,82.9,70.8,29.87,North,355,0.0,4.0,67,0.00,,SCT036,0.00,VWS V14.01,2013-05-23 17:15:00,
2013-05-23 13:21:00,83.7,71.1,29.86,NNW,338,0.0,5.0,66,0.00,,SCT036,0.00,VWS V14.01,2013-05-23 17:21:00,
2013-05-23 13:30:00,84.8,70.8,29.86,South,172,0.0,5.0,63,0.00,,SCT036,0.00,VWS V14.01,2013-05-23 17:30:00,
2013-05-23 13:35:00,85.1,71.1,29.86,West,281,0.0,2.0,63,0.00,,SCT036,0.00,VWS V14.01,2013-05-23 17:35:00,
2013-05-23 13:45:00,85.1,71.6,29.86,NW,319,0.0,3.0,64,0.00,,SCT036,0.00,VWS V14.01,2013-05-23 17:45:00,
2013-05-23 13:55:00,84.5,71.4,29.85,SW,217,4.0,7.0,65,0.00,,SCT036,0.00,VWS V14.01,2013-05-23 17:55:00,
2013-05-23 14:00:00,84.6,71.1,29.85,WNW,298,4.0,7.0,64,0.00,,SCT036,0.00,VWS V14.01,2013-05-23 18:00:00,
2013-05-23 14:09:00,83.6,71.1,29.85,NNW,333,0.0,4.0,66,0.00,,FEW043,0.00,VWS V14.01,2013-05-23 18:09:00,
2013-05-23 14:15:00,83.3,71.2,29.85,WSW,243,0.0,4.0,67,0.00,,FEW043,0.00,VWS V14.01,2013-05-23 18:15:00,
2013-05-23 14:23:00,83.7,71.6,29.85,SSW,199,0.0,4.0,67,0.00,,FEW043,0.00,VWS V14.01,2013-05-23 18:23:00,
2013-05-23 14:30:00,83.3,71.6,29.84,South,182,0.0,4.0,68,0.00,,FEW043,0.00,VWS V14.01,2013-05-23 18:30:00,
2013-05-23 14:38:00,83.6,71.9,29.84,South,187,0.0,1.0,68,0.00,,FEW043,0.00,VWS V14.01,2013-05-23 18:38:00,
2013-05-23 14:45:00,84.6,71.6,29.84,WNW,290,0.0,4.0,65,0.00,,FEW043,0.00,VWS V14.01,2013-05-23 18:45:00,
2013-05-23 14:52:00,85.1,71.1,29.83,NW,315,0.0,7.0,63,0.00,,FEW043,0.00,VWS V14.01,2013-05-23 18:52:00,
2013-05-23 15:00:00,85.5,71.0,29.83,West,280,1.0,8.0,62,0.00,,FEW043,0.00,VWS V14.01,2013-05-23 19:00:00,
2013-05-23 15:07:00,85.8,71.3,29.83,West,264,0.0,2.0,62,0.00,,SCT050,0.00,VWS V14.01,2013-05-23 19:07:00,
2013-05-23 15:15:00,86.1,70.6,29.82,West,259,0.0,5.0,60,0.00,,SCT050,0.00,VWS V14.01,2013-05-23 19:15:00,
2013-05-23 15:21:00,85.8,72.7,29.82,East,84,0.0,2.0,65,0.00,,SCT050,0.00,VWS V14.01,2013-05-23 19:21:00,
2013-05-23 15:30:00,86.1,72.0,29.82,North,355,0.0,5.0,63,0.00,,SCT050,0.00,VWS V14.01,2013-05-23 19:30:00,
2013-05-23 15:36:00,86.5,71.5,29.81,NNE,24,0.0,1.0,61,0.00,,SCT050,0.00,VWS V14.01,2013-05-23 19:36:00,
2013-05-23 15:45:00,86.8,71.8,29.81,SW,225,0.0,3.0,61,0.00,,SCT050,0.00,VWS V14.01,2013-05-23 19:45:00,
2013-05-23 15:50:00,86.4,70.9,29.81,West,267,0.0,3.0,60,0.00,,SCT050,0.00,VWS V14.01,2013-05-23 19:50:00,
2013-05-23 16:00:00,85.5,71.5,29.81,WNW,292,1.0,5.0,63,0.00,,SCT050,0.00,VWS V14.01,2013-05-23 20:00:00,
2013-05-23 16:10:00,85.4,72.3,29.81,WSW,240,2.0,4.0,65,0.00,,SCT100,0.00,VWS V14.01,2013-05-23 20:10:00,
2013-05-23 16:15:00,85.2,71.2,29.81,WSW,245,0.0,4.0,63,0.00,,SCT100,0.00,VWS V14.01,2013-05-23 20:15:00,
2013-05-23 16:24:00,84.5,70.1,29.81,SW,223,0.0,2.0,62,0.00,,SCT100,0.00,VWS V14.01,2013-05-23 20:24:00,
2013-05-23 16:30:00,84.3,72.2,29.80,SSW,209,0.0,2.0,67,0.00,,SCT100,0.00,VWS V14.01,2013-05-23 20:30:00,
2013-05-23 16:39:00,83.6,71.5,29.80,SSW,209,0.0,1.0,67,0.00,,SCT100,0.00,VWS V14.01,2013-05-23 20:39:00,
2013-05-23 16:45:00,82.7,71.9,29.80,SSW,209,0.0,1.0,70,0.00,,SCT100,0.00,VWS V14.01,2013-05-23 20:45:00,
2013-05-23 16:53:00,80.2,71.9,29.81,SSE,159,0.0,6.0,76,0.02,,SCT100,0.02,VWS V14.01,2013-05-23 20:53:00,
2013-05-23 17:00:00,77.6,71.7,29.81,SSW,206,0.0,6.0,82,0.04,,SCT100,0.04,VWS V14.01,2013-05-23 21:00:00,
2013-05-23 17:08:00,76.9,72.7,29.80,South,184,0.0,1.0,87,0.04,,FEW080,0.04,VWS V14.01,2013-05-23 21:08:00,
2013-05-23 17:15:00,77.5,73.7,29.80,NE,41,0.0,3.0,88,0.04,,FEW080,0.04,VWS V14.01,2013-05-23 21:15:00,
2013-05-23 17:22:00,77.9,73.4,29.80,SSE,153,0.0,1.0,86,0.04,,FEW080,0.04,VWS V14.01,2013-05-23 21:22:00,
2013-05-23 17:30:00,78.2,73.3,29.80,SSE,154,0.0,1.0,85,0.04,,FEW080,0.04,VWS V14.01,2013-05-23 21:30:00,
2013-05-23 17:37:00,78.2,73.0,29.80,SSE,154,0.0,0.0,84,0.04,,FEW080,0.04,VWS V14.01,2013-05-23 21:37:00,
2013-05-23 17:45:00,78.0,73.1,29.79,SSE,154,0.0,0.0,85,0.04,,FEW080,0.04,VWS V14.01,2013-05-23 21:45:00,
2013-05-23 17:51:00,77.9,73.0,29.79,SSE,154,0.0,0.0,85,0.04,,FEW080,0.04,VWS V14.01,2013-05-23 21:51:00,
2013-05-23 18:00:00,78.0,72.8,29.79,SE,144,0.0,1.0,84,0.04,,FEW080,0.04,VWS V14.01,2013-05-23 22:00:00,
2013-05-23 18:06:00,78.4,72.8,29.81,NNE,31,3.0,5.0,83,0.00,,FEW049,0.04,VWS V14.01,2013-05-23 22:06:00,
2013-05-23 18:15:00,77.0,70.0,29.81,WNW,301,0.0,5.0,79,0.00,,FEW049,0.04,VWS V14.01,2013-05-23 22:15:00,
2013-05-23 18:20:00,76.2,68.8,29.81,WNW,300,0.0,4.0,78,0.00,,FEW049,0.04,VWS V14.01,2013-05-23 22:20:00,
2013-05-23 18:30:00,75.4,69.5,29.80,WNW,301,0.0,4.0,82,0.00,,FEW049,0.04,VWS V14.01,2013-05-23 22:30:00,
2013-05-23 18:39:00,75.3,70.1,29.80,WNW,301,0.0,1.0,84,0.00,,FEW049,0.04,VWS V14.01,2013-05-23 22:39:00,
2013-05-23 18:45:00,75.1,70.3,29.80,WNW,301,0.0,1.0,85,0.00,,FEW049,0.04,VWS V14.01,2013-05-23 22:45:00,
2013-05-23 18:54:00,75.1,70.6,29.80,WNW,301,0.0,0.0,86,0.00,,FEW049,0.04,VWS V14.01,2013-05-23 22:54:00,
2013-05-23 19:00:00,75.0,70.9,29.80,WNW,301,0.0,0.0,87,0.00,,FEW049,0.04,VWS V14.01,2013-05-23 23:00:00,
2013-05-23 19:08:00,75.0,71.2,29.80,WNW,301,0.0,0.0,88,0.00,,CLR,0.04,VWS V14.01,2013-05-23 23:08:00,
2013-05-23 19:15:00,74.8,71.0,29.80,WNW,301,0.0,0.0,88,0.00,,CLR,0.04,VWS V14.01,2013-05-23 23:15:00,
2013-05-23 19:23:00,74.6,70.8,29.80,WNW,301,0.0,0.0,88,0.00,,CLR,0.04,VWS V14.01,2013-05-23 23:23:00,
2013-05-23 19:30:00,74.4,70.9,29.80,WNW,301,0.0,0.0,89,0.00,,CLR,0.04,VWS V14.01,2013-05-23 23:30:00,
2013-05-23 19:37:00,74.2,70.8,29.80,WNW,300,0.0,0.0,89,0.00,,CLR,0.04,VWS V14.01,2013-05-23 23:37:00,
2013-05-23 19:45:00,74.0,70.9,29.80,WNW,300,0.0,0.0,90,0.00,,CLR,0.04,VWS V14.01,2013-05-23 23:45:00,
2013-05-23 19:52:00,73.9,70.8,29.80,WNW,300,0.0,0.0,90,0.00,,CLR,0.04,VWS V14.01,2013-05-23 23:52:00,
2013-05-23 20:00:00,73.7,70.9,29.81,North,360,0.0,0.0,91,0.00,,CLR,0.04,VWS V14.01,2013-05-24 00:00:00,
2013-05-23 20:06:00,73.5,70.7,29.81,North,360,0.0,0.0,91,0.00,,CLR,0.04,VWS V14.01,2013-05-24 00:06:00,
2013-05-23 20:15:00,73.4,70.6,29.81,North,360,0.0,0.0,91,0.00,,CLR,0.04,VWS V14.01,2013-05-24 00:15:00,
2013-05-23 20:21:00,73.3,70.5,29.81,North,360,0.0,0.0,91,0.00,,CLR,0.04,VWS V14.01,2013-05-24 00:21:00,
2013-05-23 20:30:00,72.9,70.1,29.81,North,360,0.0,0.0,91,0.00,,CLR,0.04,VWS V14.01,2013-05-24 00:30:00,
2013-05-23 20:35:00,72.7,69.9,29.81,North,360,0.0,0.0,91,0.00,,CLR,0.04,VWS V14.01,2013-05-24 00:35:00,
2013-05-23 20:45:00,72.4,69.9,29.81,North,360,0.0,0.0,92,0.00,,CLR,0.04,VWS V14.01,2013-05-24 00:45:00,
2013-05-23 20:55:00,72.1,69.7,29.82,North,360,0.0,0.0,92,0.00,,CLR,0.04,VWS V14.01,2013-05-24 00:55:00,
2013-05-23 21:00:00,72.0,69.6,29.82,North,360,0.0,0.0,92,0.00,,CLR,0.04,VWS V14.01,2013-05-24 01:00:00,
2013-05-23 21:09:00,71.7,69.6,29.82,North,360,0.0,0.0,93,0.00,,CLR,0.04,VWS V14.01,2013-05-24 01:09:00,
2013-05-23 21:15:00,71.5,69.4,29.82,North,360,0.0,0.0,93,0.00,,CLR,0.04,VWS V14.01,2013-05-24 01:15:00,
2013-05-23 21:24:00,71.3,69.2,29.83,North,360,0.0,0.0,93,0.00,,CLR,0.04,VWS V14.01,2013-05-24 01:24:00,
2013-05-23 21:30:00,71.2,69.1,29.83,North,360,0.0,0.0,93,0.00,,CLR,0.04,VWS V14.01,2013-05-24 01:30:00,
2013-05-23 21:38:00,71.0,69.2,29.83,North,360,0.0,0.0,94,0.00,,CLR,0.04,VWS V14.01,2013-05-24 01:38:00,
2013-05-23 21:45:00,70.8,69.0,29.83,North,360,0.0,0.0,94,0.00,,CLR,0.04,VWS V14.01,2013-05-24 01:45:00,
2013-05-23 21:53:00,70.6,68.8,29.83,North,360,0.0,0.0,94,0.00,,CLR,0.04,VWS V14.01,2013-05-24 01:53:00,
2013-05-23 22:00:00,70.5,68.7,29.83,North,360,0.0,0.0,94,0.00,,CLR,0.04,VWS V14.01,2013-05-24 02:00:00,
2013-05-23 22:07:00,70.3,68.5,29.83,North,360,0.0,0.0,94,0.00,,CLR,0.04,VWS V14.01,2013-05-24 02:07:00,
2013-05-23 22:15:00,70.2,68.4,29.83,North,360,0.0,0.0,94,0.00,,CLR,0.04,VWS V14.01,2013-05-24 02:15:00,
2013-05-23 22:22:00,70.1,68.3,29.84,North,360,0.0,0.0,94,0.00,,CLR,0.04,VWS V14.01,2013-05-24 02:22:00,
2013-05-23 22:30:00,69.9,68.1,29.84,North,360,0.0,0.0,94,0.00,,CLR,0.04,VWS V14.01,2013-05-24 02:30:00,
2013-05-23 22:36:00,69.8,68.0,29.84,North,360,0.0,0.0,94,0.00,,CLR,0.04,VWS V14.01,2013-05-24 02:36:00,
2013-05-23 22:45:00,69.7,67.9,29.84,North,360,0.0,0.0,94,0.00,,CLR,0.04,VWS V14.01,2013-05-24 02:45:00,
2013-05-23 22:51:00,69.6,67.8,29.84,North,360,0.0,0.0,94,0.00,,CLR,0.04,VWS V14.01,2013-05-24 02:51:00,
2013-05-23 23:00:00,69.4,67.6,29.84,North,360,0.0,0.0,94,0.00,,CLR,0.04,VWS V14.01,2013-05-24 03:00:00,
2013-05-23 23:10:00,69.4,67.6,29.84,North,360,0.0,0.0,94,0.00,,CLR,0.04,VWS V14.01,2013-05-24 03:10:00,
2013-05-23 23:15:00,69.3,67.5,29.84,North,360,0.0,0.0,94,0.00,,CLR,0.04,VWS V14.01,2013-05-24 03:15:00,
2013-05-23 23:24:00,69.2,67.4,29.84,North,360,0.0,0.0,94,0.00,,CLR,0.04,VWS V14.01,2013-05-24 03:24:00,
2013-05-23 23:30:00,69.2,67.4,29.83,North,360,0.0,0.0,94,0.00,,CLR,0.04,VWS V14.01,2013-05-24 03:30:00,
2013-05-23 23:39:00,69.0,67.2,29.84,North,360,0.0,0.0,94,0.00,,CLR,0.04,VWS V14.01,2013-05-24 03:39:00,
2013-05-23 23:45:00,69.0,67.2,29.83,North,360,0.0,1.0,94,0.00,,CLR,0.04,VWS V14.01,2013-05-24 03:45:00,
2013-05-23 23:53:00,68.9,66.8,29.83,North,360,0.0,0.0,93,0.00,,CLR,0.04,VWS V14.01,2013-05-24 03:53:00,